EHI
3 4 7 5 1 0 0 0 0 0 0 1 2 2 2 1 0 0 0 0 0 0 0 0 1 2 1 1 1 1 0 0 0 0 0 0 1 3 4 3 2 1 1
5 7 9 7 2 0 0 0 0 0 0 0 1 1 1 0 0 0 0 0 0 0 0 0 1 2 1 1 1 1 0 0 0 1 1 0 1 2 3 2 2 1 1
8 8 9 7 3 1 1 0 0 0 0 0 0 0 0 0 0 0 0 0 0 0 0 0 1 2 3 2 3 2 1 1 1 1 1 0 0 1 1 1 1 0 1
7 5 5 5 3 2 1 0 0 0 0 0 0 0 0 0 0 0 0 0 0 0 0 0 1 2 3 3 3 3 2 2 1 1 1 0 0 0 0 0 0 0 0
6 3 3 4 3 1 1 0 0 0 0 0 0 0 0 0 0 0 0 0 0 0 0 0 0 1 2 3 3 3 2 2 1 0 0 0 0 0 0 0 0 0 0
4 4 6 6 4 2 1 0 0 0 0 0 0 0 0 0 0 0 0 0 0 0 0 0 0 1 1 2 3 2 2 2 1 0 0 0 0 0 0 0 0 0 0
5 5 6 7 6 4 3 2 0 0 0 0 0 0 0 0 0 0 0 0 0 0 0 0 1 1 1 1 1 1 1 1 0 0 0 0 0 0 0 0 0 0 0
8 5 4 4 5 5 5 3 1 0 0 0 0 0 0 0 0 0 0 0 0 0 0 0 1 1 0 0 0 0 1 1 1 0 0 0 0 0 0 0 0 0 0
8 5 2 1 2 4 4 3 2 0 0 0 0 0 0 0 0 0 0 0 0 0 0 0 0 0 0 0 0 1 2 2 1 0 0 0 0 0 0 0 0 0 0
6 4 2 1 1 1 2 1 1 1 0 0 0 0 0 0 0 0 0 0 0 1 1 0 0 0 0 0 0 2 3 2 1 0 0 1 2 1 0 0 0 0 0
6 4 3 2 1 0 0 0 0 1 0 0 0 0 0 0 0 0 0 0 0 1 1 0 0 0 0 0 0 1 2 1 0 0 1 3 4 2 0 0 0 0 0
8 5 3 3 1 0 0 0 0 0 0 0 0 0 0 0 0 0 0 0 0 0 0 0 0 0 0 0 0 0 0 0 0 0 1 4 6 5 2 1 0 0 0
13 7 3 4 3 1 1 1 1 0 0 0 0 0 0 0 0 0 0 0 0 0 0 0 0 0 0 0 0 0 0 0 0 0 1 5 8 8 5 3 1 1 0
21 12 6 6 6 4 3 3 1 1 1 0 0 0 0 0 0 0 0 0 0 0 0 0 0 0 0 0 0 0 0 0 0 0 1 5 8 9 7 4 3 1 1
34 25 15 12 11 9 6 4 3 2 2 1 1 0 0 0 0 0 0 0 0 0 0 0 0 0 0 0 0 0 0 0 0 0 1 4 8 9 7 5 2 1 0
47 41 31 25 21 16 10 6 5 5 4 2 1 1 0 0 0 0 0 0 0 0 0 0 0 0 0 0 0 0 0 0 0 0 0 2 6 9 9 6 3 2 2
57 53 45 38 33 26 17 12 10 9 6 2 1 1 1 0 0 0 0 0 0 0 0 0 0 0 0 0 0 0 0 0 0 0 0 1 3 7 9 7 5 5 5
60 56 49 45 40 31 22 15 12 9 5 2 0 0 1 0 0 0 0 0 0 0 0 0 0 0 0 0 0 0 0 0 0 0 0 0 1 3 5 7 6 6 6
61 57 49 44 41 32 22 14 9 6 4 2 0 1 1 1 0 0 0 0 0 0 0 0 0 0 0 0 0 0 0 0 0 0 0 0 0 0 1 3 5 6 7
63 57 49 44 42 35 25 15 9 5 4 2 1 1 2 1 0 0 0 0 0 0 0 0 0 0 0 0 0 0 0 0 0 0 0 1 1 1 0 0 2 4 5
64 59 51 46 44 40 30 19 12 7 4 3 1 1 2 2 0 0 0 0 0 0 0 0 0 0 0 0 0 0 0 0 0 0 0 1 1 1 1 0 0 1 2
66 62 56 50 46 42 32 21 13 7 4 2 1 1 1 1 0 0 0 0 0 0 0 0 0 0 0 0 0 0 0 0 0 0 0 0 1 1 1 1 1 0 0
67 64 57 51 44 39 32 22 14 8 4 2 1 1 1 0 0 0 0 0 0 0 0 0 0 0 0 0 0 0 0 0 0 0 0 0 0 0 0 1 2 2 1
67 63 56 48 40 36 32 24 15 9 5 3 2 2 1 0 0 0 1 1 0 0 0 0 0 0 0 0 0 0 0 0 0 0 0 0 0 0 0 1 2 2 2
67 63 54 44 36 33 29 21 15 10 6 3 2 2 1 1 0 0 1 2 1 0 0 0 0 0 0 0 0 0 0 0 0 0 0 0 0 0 0 0 1 1 2
67 63 53 42 35 31 26 18 13 11 7 3 3 3 2 2 1 0 1 2 2 1 0 0 0 0 0 0 0 0 0 0 0 0 0 0 0 0 0 0 0 0 1
Wind_Speed
4 5 13 14 14 13 13 14 14 14 14 14 15 15 15 15 15 15 15 14 14 14 14 14 15 15 15 15 15 15 15 15 15 15 15 15 15 16 16 16 15 11 16
8 7 14 14 14 13 13 13 13 13 14 14 14 14 14 14 14 14 14 14 13 14 14 14 14 14 14 15 15 15 14 14 15 15 14 13 14 15 15 15 14 10 16
10 8 11 14 13 13 13 13 13 13 13 14 13 13 13 13 13 13 13 13 13 13 13 13 13 14 14 14 14 14 14 14 14 14 13 7 9 14 14 15 15 15 15
11 7 10 14 13 13 13 13 13 13 13 13 13 13 13 13 13 13 13 13 13 13 13 12 12 13 13 12 12 12 13 14 14 13 7 5 7 13 14 14 15 14 14
10 7 10 15 14 13 13 12 12 13 13 13 13 13 12 12 12 13 13 12 12 12 12 12 12 12 11 11 11 11 11 13 13 10 6 5 5 12 14 14 14 14 13
9 7 10 15 14 13 13 12 12 12 12 12 12 12 12 12 12 12 12 12 12 11 11 11 11 10 10 10 9 10 11 13 11 7 6 5 5 11 13 14 14 13 13
9 7 9 15 14 13 13 12 12 12 12 12 12 12 12 12 12 12 12 12 11 11 10 10 9 9 9 9 9 9 10 13 7 6 5 4 6 12 13 13 13 13 13
11 8 8 14 14 13 13 13 12 12 12 12 11 11 11 11 11 11 11 11 10 10 9 9 8 8 8 8 8 8 10 11 9 7 5 4 9 11 13 12 12 12 12
11 8 6 7 10 13 13 12 12 12 11 11 11 11 11 11 11 11 10 10 9 9 8 8 7 6 6 6 6 7 9 11 6 5 7 4 9 11 12 12 11 11 11
9 8 6 5 5 5 7 12 12 12 11 10 10 10 10 10 10 10 8 8 8 8 7 7 6 4 4 4 5 7 10 9 5 4 3 6 11 11 12 11 11 11 11
9 7 7 6 5 5 5 9 9 10 10 9 8 9 8 4 4 4 7 7 7 7 6 5 4 3 2 3 4 7 8 3 4 3 3 9 11 12 11 11 11 10 10
11 9 7 8 7 6 6 5 3 4 4 3 2 3 3 2 2 4 5 7 6 5 4 3 2 0 1 2 3 5 3 4 4 3 4 11 11 12 11 11 10 10 10
12 11 9 8 8 6 4 4 2 2 2 3 3 4 2 2 2 2 1 2 2 3 1 1 0 1 1 0 1 2 3 3 2 3 5 11 11 11 11 11 10 10 10
11 10 9 8 8 6 5 4 3 3 2 2 3 4 3 2 2 2 2 1 1 1 1 1 1 1 1 0 2 3 3 3 3 2 5 11 11 11 11 11 10 10 10
10 9 9 8 8 6 5 4 4 4 4 3 3 3 4 3 3 3 2 2 2 2 2 1 2 1 1 1 2 4 4 4 4 4 3 11 11 10 11 11 10 10 10
9 9 8 8 7 6 5 4 4 4 3 3 3 4 4 3 3 3 3 2 2 2 2 2 2 2 1 1 2 4 4 5 4 4 3 6 11 11 11 11 11 11 11
10 9 8 8 7 7 6 5 4 3 4 3 3 4 4 4 3 3 3 2 2 2 2 2 1 1 1 1 2 2 3 4 5 5 5 3 5 9 11 11 11 11 11
10 9 8 8 7 6 5 5 3 3 4 3 3 3 4 4 4 3 3 2 2 2 2 2 1 1 1 1 1 1 2 3 5 5 4 4 4 4 8 12 12 11 12
10 9 7 6 7 6 5 4 4 3 3 3 3 3 3 4 4 3 2 2 2 2 1 2 2 2 1 1 1 1 2 3 4 5 5 6 5 5 4 8 11 11 12
9 8 7 6 6 5 3 2 2 3 2 2 2 3 3 3 3 3 2 2 2 2 1 1 2 1 1 2 1 0 1 2 3 3 5 5 5 6 5 6 5 7 12
8 7 7 7 6 5 3 2 2 2 2 2 2 3 3 3 3 2 2 2 2 2 2 3 2 1 1 1 1 1 2 2 2 3 3 4 5 6 6 6 5 4 5
8 7 7 7 6 5 3 3 2 2 2 2 2 2 3 3 2 3 2 2 2 2 2 2 2 2 1 1 2 1 2 4 3 2 2 3 4 4 5 7 6 6 5
8 8 8 6 6 5 4 2 2 1 1 1 2 2 3 3 3 3 3 3 2 2 3 3 3 3 2 1 2 3 2 3 2 3 2 2 2 3 4 5 7 7 7
9 7 6 5 4 4 4 4 4 3 2 3 2 2 2 3 3 3 3 3 3 2 3 3 3 3 3 2 1 1 2 3 2 1 3 2 1 3 3 4 5 5 6
8 7 6 6 4 4 4 4 4 3 2 1 1 2 2 2 3 3 3 3 3 2 3 3 2 3 3 3 2 1 1 0 2 2 2 2 2 2 3 3 3 3 4
7 7 6 6 4 4 4 4 4 4 3 2 2 2 2 2 2 3 3 3 3 3 3 3 3 3 3 3 2 2 2 2 2 2 3 2 2 3 2 2 2 3 3
Wind_Direction
128 128 118 112 108 105 101 97 94 92 91 91 92 93 95 96 98 98 100 101 102 102 102 104 105 107 108 110 111 112 114 115 117 118 120 121 121 119 115 114 112 110 114
140 130 120 115 112 108 105 101 99 96 95 95 95 96 97 99 100 100 101 102 104 104 104 104 104 106 108 109 110 112 114 113 114 115 116 118 119 117 116 116 115 117 117
128 124 121 118 116 114 109 106 104 100 99 98 98 99 99 100 101 101 102 103 104 105 105 104 104 106 107 108 108 111 114 115 113 110 106 100 111 116 116 117 117 118 118
126 122 124 121 119 117 113 110 107 104 102 101 101 101 102 102 102 102 103 105 105 105 105 105 105 105 105 105 107 111 116 119 115 110 100 100 110 116 115 116 117 117 118
121 122 130 125 122 120 117 113 111 109 107 105 104 104 103 103 102 102 104 105 105 105 105 105 104 103 104 104 104 108 114 118 114 104 93 93 101 118 117 117 118 118 119
123 126 134 129 126 124 121 117 115 113 110 108 108 107 105 105 104 104 104 105 105 106 106 106 105 104 102 102 104 108 114 115 108 101 98 101 106 120 120 120 120 120 120
130 131 134 132 130 128 125 122 120 117 113 112 110 109 108 108 109 108 108 107 107 107 107 107 107 107 104 101 99 104 116 118 112 108 105 104 116 122 121 121 122 121 122
136 134 135 136 135 133 130 127 124 122 119 117 116 116 115 114 112 112 112 111 111 109 109 109 111 111 105 98 95 100 119 123 122 120 112 113 127 127 126 126 126 125 126
135 134 134 139 138 138 136 133 130 127 125 125 124 123 122 120 118 117 116 116 114 112 112 112 114 113 104 95 94 100 116 119 117 126 130 125 133 133 131 132 132 131 132
139 143 145 137 134 136 139 139 138 136 135 134 134 133 131 128 125 123 120 122 120 118 118 119 119 114 97 87 92 106 117 116 120 121 124 139 140 140 139 138 138 138 138
150 156 153 149 148 145 148 149 146 145 145 142 141 141 131 117 119 126 135 135 133 130 129 129 127 118 83 55 75 105 110 110 122 125 135 147 147 146 145 145 145 145 145
162 169 166 162 163 164 160 143 147 151 146 139 143 140 132 147 163 152 154 149 148 148 147 148 156 130 49 32 58 95 109 117 118 136 152 153 152 150 148 149 152 154 153
166 168 169 168 170 170 152 154 161 150 153 161 171 168 162 154 156 141 136 148 147 159 151 178 245 316 309 17 97 120 140 125 139 148 159 159 157 155 156 158 160 161 160
163 167 167 168 168 169 156 163 166 162 169 174 177 167 156 152 157 164 169 186 195 197 210 208 243 270 277 221 154 153 148 140 145 144 166 165 164 164 165 167 169 170 169
160 163 166 166 165 160 156 170 166 167 172 176 170 169 164 164 173 177 180 189 206 196 195 203 218 219 229 193 156 154 159 153 154 159 170 173 172 173 174 175 177 177 177
160 163 163 162 159 153 157 165 164 164 167 168 170 178 174 169 170 168 170 174 196 198 193 188 189 184 195 158 134 150 158 153 166 169 176 180 180 181 183 184 185 186 187
159 158 161 162 155 154 156 160 157 158 158 168 174 177 172 169 170 164 166 174 191 187 180 164 149 137 136 117 124 145 154 161 174 179 182 182 188 193 191 191 192 195 197
156 158 165 165 155 154 153 153 150 151 153 168 171 173 173 176 172 165 168 186 192 171 154 146 147 132 128 123 142 170 165 172 185 185 186 190 192 197 203 202 201 203 206
160 161 165 159 155 157 153 148 142 140 149 161 164 176 187 184 177 168 171 185 177 157 156 177 155 156 168 173 187 189 189 189 188 191 195 199 199 202 203 212 211 211 215
159 160 162 160 159 157 148 130 119 124 150 159 167 191 189 184 173 161 171 187 172 150 160 158 150 157 178 189 218 207 237 224 209 199 201 201 201 204 202 209 211 217 220
155 158 163 161 167 158 152 151 149 163 175 178 186 197 190 185 170 162 170 175 174 173 189 176 155 160 194 145 79 354 326 283 237 221 208 194 199 204 199 206 207 212 223
164 165 164 167 169 171 170 167 165 159 175 179 186 186 190 186 179 180 173 182 189 175 182 182 162 156 209 156 139 103 345 336 315 249 218 203 203 199 201 208 208 209 218
167 173 170 172 171 171 165 139 121 102 92 145 191 201 201 190 188 190 189 191 200 185 193 200 183 169 193 231 158 150 157 230 292 316 276 222 204 195 207 210 213 216 216
175 167 156 162 165 164 159 156 157 166 186 206 198 202 203 197 199 199 197 202 199 188 196 209 189 178 170 204 227 193 182 171 171 295 320 298 243 219 210 215 217 215 217
160 155 150 153 159 157 160 165 165 178 200 204 186 191 205 215 213 209 203 200 195 192 198 205 188 177 172 176 186 193 179 154 168 169 266 301 314 266 229 217 215 210 214
148 147 146 148 154 160 166 168 175 183 193 190 194 194 210 222 224 225 213 201 197 195 199 204 198 189 184 177 178 177 174 179 200 184 218 252 267 277 261 228 217 213 212